Location: Erdweis
(48.5167°N, 15.3500°E)
Time: 13:56:12
(UTC+00:00)

USA 234 - Pass Details

Date: 21 January 2021
Orbit: 1100 x 1107 km, 123.0° (Epoch: 01 March)

Event Time Altitude Azimuth Distance (km) Brightness Sun altitude
Exits shadow 16:08:25 - 68° (ENE) 3,350 5.1 -5.0°
Reaches altitude 10° 16:09:28 10° 65° (ENE) 2,965 4.8 -5.2°
Maximum altitude 16:15:33 43° 357° (N) 1,514 3.9 -6.1°
Drops below altitude 10° 16:21:37 10° 289° (WNW) 2,968 6.3 -7.0°
Sets 16:24:13 0° 283° (WNW) 3,927 7.2 -7.4°
